Location: White Sands National Monument
(32.8140°N, 106.2665°W)
Time: 00:17:02
(UTC-06:00)

Daily predictions for brighter satellites

Satellite Brightness Start Highest point End
(mag) Time Altitude Azimuth Time Altitude Azimuth Time Altitude Azimuth
Cosmos 1833 Rocket 3.9 00:00:53 10° NNW 00:04:19 38° NW 00:04:19 38° NW
Cosmos 2082 Rocket 3.9 00:16:09 10° NW 00:19:06 27° WNW 00:19:06 27° WNW
USA 229 DEB 4.4 00:21:52 10° NW 00:27:08 50° WNW 00:27:08 50° WNW
USA 229 4.4 00:21:58 10° NW 00:27:14 50° WNW 00:27:14 50° WNW
Lacrosse 5 4.2 00:53:43 20° NNE 00:53:43 20° NNE 00:55:25 10° NNE
Cosmos 2369 Rocket 3.8 01:09:49 30° N 01:09:49 30° N 01:12:53 10° N
ATLAS 2AS CENTAUR R/B 4.4 01:01:52 10° N 01:08:42 29° NE 01:11:24 24° ENE
NOSS 3-1 (C) 4.4 01:11:40 10° NNW 01:17:48 60° NW 01:17:48 60° NW
ATLAS 3B CENTAUR R/B 4.3 01:29:44 67° S 01:30:41 68° SSE 02:01:16 10° E
CZ-2C R/B 4.4 01:27:13 10° N 01:29:39 28° N 01:29:39 28° N
Cosmos 1943 Rocket 3.7 01:56:48 30° NNW 01:56:48 30° NNW 01:59:52 10° N
SeaSat 1 4.3 02:10:09 27° N 02:10:09 27° N 02:12:29 10° NNW
NOSS 3-3 (C) 4.5 02:35:15 54° NNW 02:35:15 54° NNW 02:40:42 10° NNE
ATLAS 2AS CENTAUR R/B 3.2 02:52:22 10° NW 02:58:44 52° WNW 02:58:44 52° WNW
Cosmos 1464 Rocket 4.2 03:01:07 64° E 03:01:08 64° E 03:07:22 10° NNE
CZ-2D R/B 3.7 02:58:19 10° NE 03:02:49 26° E 03:03:24 25° ESE
Cosmos 2227 Rocket 3.4 03:04:21 10° N 03:09:37 38° ENE 03:12:25 24° ESE
Cosmos 2278 3.8 03:20:13 67° NNW 03:20:13 67° NNW 03:25:19 10° NNE
Cosmos 2369 3.7 03:20:35 75° N 03:20:35 75° N 03:25:47 10° NNE
Cosmos 972 Rocket 4.3 03:16:39 10° NNW 03:20:44 60° N 03:20:44 60° N
Cosmos 405 Rocket 4.3 03:23:05 10° N 03:25:47 36° NNE 03:25:47 36° NNE
Cosmos 2297 Rocket 3.3 03:26:12 10° N 03:31:31 41° ENE 03:36:48 10° SE
Cosmos 1513 Rocket 4.2 03:32:21 78° SSW 03:32:46 86° W 03:38:50 10° N
Cosmos 468 Rocket 4.0 03:34:43 76° NNW 03:34:43 76° NNW 03:39:31 10° NNE
UNKNOWN OBJECT B 4.4 03:34:15 10° NE 03:37:27 30° E 03:37:27 30° E
Cosmos 2150 Rocket 4.3 03:35:44 10° N 03:40:55 61° ENE 03:42:29 42° SE
ATLAS CENTAUR R/B 1.7 03:45:31 83° NNW 03:45:31 83° NNW 03:50:28 10° NNE
Meteor 1-24 Rocket 4.3 03:40:21 10° N 03:45:58 55° E 03:49:28 24° SSE
Cosmos 1891 Rocket 4.3 03:47:39 63° WSW 03:48:13 66° W 03:54:15 10° N
NOSS 2-1 (D) 4.5 03:52:31 36° NNW 03:52:31 36° NNW 03:55:43 10° NNE
Resurs 1-4 Rocket 2.0 03:47:15 10° NNE 03:52:32 83° ESE 03:53:23 64° S
NOSS 2-1 (C) 4.4 03:53:49 36° NNW 03:53:49 36° NNW 03:57:05 10° NNE
SL-24 R/B 4.3 03:54:24 65° S 03:55:11 87° W 03:59:58 10° NNW
SL-16 R/B 2.5 03:52:25 29° SSE 03:55:47 82° ENE 04:01:57 10° NNW
Cosmos 1898 Rocket 3.4 03:52:11 10° NNW 03:57:33 88° WSW 03:59:03 49° SSE
Okean O Rocket 3.2 03:54:25 10° NE 03:58:17 29° E 04:00:11 21° SE
Cosmos 2034 Rocket 4.1 03:59:27 50° WSW 04:00:24 55° W 04:06:30 10° N
ERS-2 4.4 03:59:33 10° NNW 04:00:53 17° NW 04:00:53 17° NW
ADEOS 4.5 03:59:42 10° N 04:04:19 33° WNW 04:04:22 33° WNW
Cosmos 972 4.2 04:02:04 10° NNW 04:06:57 73° WSW 04:07:52 57° SSW
Cosmos 1707 3.9 04:03:21 10° NNW 04:05:47 32° NW 04:05:47 32° NW
Cosmos 841 Rocket 3.5 04:06:42 51° S 04:08:04 82° ESE 04:13:21 10° NNE
CZ-4B R/B 4.5 04:03:31 10° NNE 04:08:33 35° E 04:12:42 14° SSE
Cosmos 1076 Rocket 4.0 04:04:31 10° N 04:08:48 58° E 04:10:36 32° SSE
Cosmos 220 Rocket 4.2 04:04:43 10° NNW 04:08:19 54° WNW 04:08:19 54° WNW
Cosmos 1937 Rocket 3.4 04:08:24 10° NNW 04:13:36 89° WSW 04:16:56 23° SSE
MTI 4.5 04:14:10 48° ESE 04:14:36 52° ENE 04:17:48 10° N
GPS 2-04 Rocket1 2.7 04:14:46 62° NW 04:15:07 66° N 04:18:54 10° ENE
UNK 3.7 04:14:59 55° SSW 04:15:48 67° WSW 04:20:29 10° NNW
Cosmos 1763 Rocket 3.4 04:15:26 50° SW 04:16:45 71° WNW 04:21:58 10° NNE
ARIANE 5 R/B 3.2 04:15:15 10° N 04:19:57 37° WNW 04:20:42 35° W
Nadezhda 4 Rocket 3.9 04:15:14 10° N 04:21:23 72° W 04:25:04 26° S
NOSS 3-4 (A) 4.1 04:15:50 10° NNW 04:22:54 70° ENE 04:30:22 10° SE
NOSS 3-4 (C) 4.1 04:15:56 10° NNW 04:23:02 69° ENE 04:30:31 10° SE
Cosmos 1656 4.3 04:24:08 35° WSW 04:25:39 42° WNW 04:31:01 10° N
Cosmos 1408 Rocket 3.4 04:23:09 10° N 04:27:33 85° W 04:29:40 30° S
Cosmos-2242 2.9 04:26:14 39° S 04:27:49 86° E 04:32:09 10° N
Cosmos 1766 Rocket 3.5 04:23:51 10° N 04:28:16 88° E 04:30:49 25° S
ASTRO E2 2.6 04:27:59 60° SW 04:28:29 68° S 04:32:31 10° ESE
CZ-4B R/B 3.8 04:28:59 10° NNE 04:32:44 43° E 04:35:08 19° SSE
SME Rocket 4.2 04:33:14 34° SW 04:34:30 39° W 04:40:53 10° NNW
CZ-2C R/B 4.2 04:32:17 10° SSE 04:36:58 64° ENE 04:41:35 10° N
Delta 7925 Rocket 4.1 04:38:00 32° SSW 04:38:50 33° SSW 04:43:13 10° SE
Cosmos 1697 Rocket 3.2 04:36:49 31° WSW 04:38:56 44° WNW 04:44:20 10° N
Cosmos 2082 4.3 04:35:54 10° NW 04:40:51 32° WSW 04:42:03 29° SW
CZ-2D R/B 3.0 04:38:01 10° N 04:42:50 33° WNW 04:44:44 26° WSW
SL-8 R/B 4.4 04:43:48 30° SSW 04:43:48 30° SSW 04:47:20 10° SSE
CZ-4B DEB 4.4 04:38:10 10° NNE 04:43:42 71° ESE 04:48:43 13° S
Cosmos 1842 Rocket 4.0 04:40:59 14° S 04:44:44 62° E 04:49:11 10° NNE
Cosmos 1980 Rocket 2.2 04:42:57 28° SW 04:45:57 65° WNW 04:51:35 10° NNE
In-Cosmos 22 4.0 04:41:13 10° N 04:46:31 89° E 04:51:49 10° S
PSLV R/B 3.7 04:43:38 10° N 04:47:27 64° WNW 04:49:01 32° SSW
SWIFT 4.3 04:49:22 14° S 04:49:22 14° S 04:51:12 10° SSE
Cosmos 1634 Rocket 4.1 04:45:21 21° SSW 04:49:29 60° W 04:55:41 10° N
Cosmos 1470 3.7 04:46:18 10° SSE 04:50:03 48° E 04:53:52 10° NNE
Cosmos 1544 3.0 04:49:20 22° S 04:51:37 84° E 04:55:17 10° N
Cosmos 540 Rocket 3.5 04:48:37 17° S 04:52:38 79° ESE 04:57:48 10° NNE
Cosmos 2026 Rocket 4.1 04:46:29 10° N 04:52:51 80° E 04:59:05 10° S
Cosmos 2227 Rocket 3.2 04:48:59 10° NW 04:53:22 23° W 04:54:06 23° WSW
Cosmos 1674 4.3 04:51:15 10° NNE 04:54:44 35° E 04:58:11 10° SSE
Cosmos 2322 Rocket 2.8 04:50:24 10° S 04:55:51 54° ESE 05:01:19 10° NNE
BREEZE-M DEB 4.2 04:54:46 10° NW 04:57:23 82° NE 05:01:19 10° SE
MOZ.5/SAFIR/RUBIN 5/SL-8 3.7 04:54:17 10° S 04:59:01 83° W 05:03:44 10° NNW
Milstar 3 Cent rocket 2.9 04:57:08 20° WSW 05:01:10 63° S 05:11:21 10° E
USA 81 4.0 04:56:31 13° S 05:01:18 70° W 05:06:35 10° N
Cosmos 2195 Rocket 4.4 04:57:19 10° N 05:03:24 72° W 05:09:27 10° S
IRS-1C Rocket 4.5 04:58:24 10° N 05:03:25 46° WNW 05:07:05 18° SW
CZ-3 Stage 3 3.9 04:26:25 10° W 05:04:36 78° SSW 05:10:26 10° ESE
ADEOS II 3.1 05:02:09 10° NNE 05:07:13 46° E 05:12:14 10° S
Cosmos 1758 4.3 05:05:41 22° WSW 05:07:19 29° W 05:10:52 10° NNW
GEOS 3 Rocket 4.4 05:04:50 10° S 05:09:16 28° WSW 05:13:41 10° WNW
Cosmos 1953 3.6 05:12:29 18° WSW 05:14:06 23° WNW 05:17:23 10° NNW
Cosmos 2297 Rocket 3.3 05:11:02 10° NW 05:15:12 22° W 05:18:51 12° SW
Cosmos 332 Rocket 3.8 05:12:33 14° SSW 05:16:41 63° WNW 05:21:28 10° N
OAO 3 Rocket 4.4 05:15:56 16° WSW 05:17:53 21° SSW 05:21:23 10° SSE
Meteor PRIRODA 4.5 05:16:07 10° NNE 05:19:42 51° E 05:23:16 10° S
ISS -1.4 05:17:02 10° NNW 05:20:02 33° NE 05:23:01 10° ESE
Meteor 1-31 Rocket 4.5 05:20:37 10° NNE 05:24:12 34° E 05:27:44 10° SSE
ATLAS CENTAUR R/B 4.1 05:23:52 10° WNW 05:25:13 11° NW 05:26:34 10° NNW
SL-16 R/B 2.2 05:21:21 10° SSW 05:27:01 84° WNW 05:32:43 10° NNE
Centaur D-1A AC-31 3.5 05:05:06 14° WSW 05:27:53 51° S 05:33:06 10° E
USA 116 3.4 05:30:46 10° SSE 05:33:50 73° ENE 05:37:02 10° N
Okean O Rocket 3.2 05:31:18 10° NNW 05:34:25 19° WNW 05:37:33 10° WSW
Cosmos 1461 4.2 05:32:23 10° NNW 05:36:18 43° ENE 05:40:03 10° SE
Cosmos 1500 Rocket 4.0 05:33:13 10° NNW 05:37:21 41° W 05:41:26 10° SSW
Cosmos 371 Rocket 3.4 05:33:12 10° SSW 05:37:55 57° WNW 05:42:40 10° N
Cosmos 1428 Rocket 4.5 05:33:37 10° NNW 05:39:41 65° W 05:45:42 10° S
SL-16 R/B 4.2 05:38:13 10° WSW 05:39:56 11° W 05:41:39 10° WNW
Ariane Rocket 4.5 05:35:41 10° NNE 05:40:23 38° E 05:45:03 10° SSE
Cosmos 1125 Rocket 3.9 05:40:46 10° NNW 05:45:35 40° W 05:50:23 10° S
Aureole 1 Rocket 4.3 05:41:03 10° SW 05:46:07 45° WNW 05:52:45 10° N
Cosmos 372 Rocket 3.9 05:42:11 10° NNW 05:47:16 70° WSW 05:52:19 10° S
RESURS DK-1 2.6 05:43:14 10° NNW 05:47:23 77° ENE 05:51:29 10° SSE
Cosmos 1733 4.0 05:45:01 10° SW 05:48:27 32° W 05:51:52 10° NNW
CZ-4B R/B 4.4 05:44:28 10° NNW 05:48:52 25° WNW 05:53:12 10° WSW
Meteor 1-16 Rocket 4.4 05:47:09 10° SSW 05:53:01 73° W 05:58:58 10° N
CZ-3 R/B 2.7 05:41:19 10° WSW 06:03:14 61° S 06:08:37 10° E
